Location: Gälforsberget
(66.6500°N, 22.4167°E)
Time: 15:42:22
(UTC+00:00)

Cosmos 1898 Rocket - Pass Details

Date: 11 April 2026
Orbit: 750 x 778 km, 74.0° (Epoch: 17 May)

Event Time Altitude Azimuth Distance (km) Brightness Sun altitude
Rises 19:03:11 0° 203° (SSW) 3,228 6.6 -6.0°
Reaches altitude 10° 19:05:34 10° 200° (SSW) 2,301 5.8 -6.2°
Maximum altitude 19:10:41 59° 122° (ESE) 881 3.5 -6.6°
Drops below altitude 10° 19:15:48 10° 44° (NE) 2,296 6.0 -7.0°
Sets 19:18:11 0° 41° (NE) 3,221 6.8 -7.1°
